FW9881 Weather Reports


time (UTC)temp
F
wind
direction
speed
knots
gust
knots
rain 1hr
in
rain 24hr
in
rain mn
in
humidity
%
barometer
mb
20260906082904 56 22 0.0 0.9 0.05 0.45 0.13 86 1018.0
20260906081904 56 22 0.0 0.0 0.05 0.45 0.13 86 1018.1
20260906080904 56 360 0.0 0.9 0.04 0.44 0.12 85 1018.2
20260906075904 56 360 0.0 0.0 0.05 0.44 0.12 86 1018.1
20260906074103 57 292 0.0 0.0 0.02 0.41 0.09 86 1018.0
20260906073118 57 292 0.0 0.0 0.01 0.40 0.08 85 1018.0
20260906072204 57 292 0.0 0.0 0.01 0.40 0.08 86 1017.8
20260906071204 57 292 0.0 0.0 0.01 0.40 0.08 85 1017.7
20260906071105 57 292 0.0 0.0 0.01 0.40 0.08 85 1017.7
20260906070118 57 292 0.0 0.0 0.00 0.39 0.07 86 1017.8
20260906064206 57 292 0.0 0.0 0.01 0.39 0.07 86 1017.6
20260906064105 57 292 0.0 0.0 0.01 0.39 0.07 86 1017.4
20260906063103 57 292 0.0 0.0 0.01 0.39 0.07 85 1017.7
20260906062104 57 292 0.0 0.0 0.01 0.39 0.07 85 1017.8
20260906061202 57 292 0.0 0.0 0.01 0.39 0.07 86 1017.7
20260906060204 57 292 0.0 0.0 0.01 0.39 0.07 85 1017.7
20260906060121 57 292 0.0 0.0 0.01 0.39 0.07 85 1017.7
20260906055119 57 298 0.0 0.9 0.01 0.39 0.07 85 1017.8
20260906054204 57 337 0.9 1.7 0.01 0.38 0.06 86 1017.7
20260906053120 57 337 0.0 0.0 0.01 0.38 0.06 86 1017.7
20260906052104 57 337 0.0 0.0 0.02 0.38 0.06 86 1017.8
20260906051204 57 337 0.0 0.0 0.03 0.38 0.06 86 1017.8
20260906050204 57 337 0.0 0.0 0.05 0.38 0.06 85 1017.8
20260906045205 57 337 0.0 0.0 0.06 0.38 0.06 85 1017.7
20260906044205 57 337 0.0 0.0 0.05 0.37 0.05 86 1017.8
20260906043205 57 337 0.0 0.0 0.05 0.37 0.05 85 1017.8
20260906042203 58 337 0.0 0.0 0.05 0.37 0.04 86 1017.9
20260906042104 58 337 0.0 0.0 0.04 0.36 0.04 86 1017.8
20260906041204 58 337 0.0 0.0 0.03 0.35 0.03 86 1017.8
20260906040303 57 315 0.0 0.0 0.02 0.33 0.01 86 1017.7
20260906035306 0 0 0.0 0.0 0.01 0.32 0.00 100
20260906035204 0 0 0.0 0.0 0.01 0.32 0.00 100
20260906034229 57 315 0.0 0.0 0.02 0.32 0.32 86 1017.6
20260906034146 57 315 0.0 0.0 0.02 0.32 0.32 86 1017.6
20260906031228 57 315 0.0 0.0 0.04 0.32 0.31 87 1017.3
20260906031145 58 315 0.0 0.0 0.03 0.31 0.31 87 1017.4
20260906031027 58 315 0.0 0.0 0.03 0.31 0.31 86 1017.4
20260906030028 58 315 0.0 0.0 0.03 0.31 0.31 87 1017.5
20260906025028 58 315 0.0 0.0 0.05 0.31 0.31 86 1017.6
20260906024030 58 315 0.0 0.0 0.04 0.30 0.30 87 1017.6
20260906023028 58 315 0.0 0.0 0.05 0.30 0.30 87 1017.7
20260906022029 58 315 0.0 0.0 0.04 0.28 0.28 87 1017.6
20260906021030 59 346 0.0 0.9 0.03 0.28 0.28 86 1017.6
20260906020028 59 270 0.0 0.0 0.04 0.28 0.28 86 1017.5
20260906013927 59 337 0.0 0.0 0.05 0.25 0.25 87 1017.5
20260906012944 59 360 0.0 0.9 0.09 0.25 0.25 88 1017.5
20260906011930 59 360 0.0 0.0 0.12 0.25 0.25 87 1017.6
20260906011827 59 360 0.0 0.0 0.13 0.25 0.25 88 1017.5
20260906010828 59 360 0.0 0.0 0.16 0.25 0.25 88 1017.5
20260906010729 59 360 0.0 0.0 0.17 0.25 0.25 88 1017.4
20260906005826 59 177 0.0 1.7 0.18 0.24 0.24 89 1017.4
20260906004828 60 360 0.0 0.0 0.18 0.22 0.22 89 1017.4
20260906003829 60 337 0.0 1.7 0.16 0.20 0.19 88 1017.1
20260906003746 60 337 1.7 3.5 0.15 0.19 0.19 89 1017.2
20260906000927 61 112 0.0 0.0 0.05 0.09 0.09 89 1016.8
20260906000830 61 112 0.0 0.0 0.05 0.09 0.08 89 1016.9
20260905235828 62 174 0.0 0.0 0.02 0.06 0.05 88 1016.6
20260905233844 62 180 0.0 0.0 0.00 0.04 0.04 88 1016.3
20260905232842 62 180 0.0 0.0 0.00 0.04 0.04 88 1016.2
20260905231828 62 180 0.0 0.0 0.00 0.04 0.04 86 1016.2
20260905230927 62 157 0.0 0.0 0.00 0.04 0.04 87 1016.1
20260905225929 63 157 0.0 0.0 0.00 0.04 0.04 86 1016.1
20260905225831 63 157 0.0 0.0 0.00 0.04 0.04 85 1016.0
20260905224828 64 157 0.0 0.9 0.00 0.04 0.04 85 1016.0
20260905224729 64 157 0.0 0.9 0.00 0.04 0.04 84 1016.0
20260905221827 66 145 2.6 6.1 0.00 0.04 0.04 78 1015.5
20260905220827 68 112 0.0 0.9 0.00 0.04 0.04 73 1015.4
20260905215829 70 337 0.0 1.7 0.00 0.04 0.04 71 1015.1
20260905214927 70 282 0.0 0.9 0.00 0.04 0.04 71 1014.8
20260905213928 70 360 0.0 0.0 0.00 0.04 0.04 71 1014.8
20260905212929 71 325 3.5 5.2 0.00 0.04 0.04 74 1014.5
20260905211945 70 22 0.9 1.7 0.00 0.04 0.04 78 1014.5
20260905210926 69 337 0.9 1.7 0.00 0.04 0.04 81 1014.5
20260905205928 68 307 0.0 1.7 0.01 0.04 0.04 83 1014.5
20260905203929 65 337 0.0 0.0 0.01 0.04 0.04 86 1014.6
20260905203845 65 337 0.0 0.0 0.01 0.04 0.04 85 1014.6
20260905202929 65 337 0.0 0.0 0.01 0.04 0.04 84 1014.5
20260905201928 66 337 0.0 0.0 0.01 0.04 0.04 82 1014.5
20260905200027 68 180 0.0 1.7 0.03 0.03 0.03 80 1014.1
20260905195027 68 112 0.0 0.0 0.03 0.03 0.03 84 1014.1
20260905194026 68 180 0.0 0.0 0.03 0.03 0.03 80 1014.1
20260905193044 69 180 0.0 0.0 0.03 0.03 0.03 77 1014.1
20260905192928 69 180 0.0 0.0 0.03 0.03 0.03 76 1014.1
20260905191929 71 180 0.0 0.0 0.03 0.03 0.03 69 1014.0
20260905185928 72 22 0.0 0.0 0.00 0.00 0.00 64 1013.8
20260905181126 70 337 0.0 0.0 0.00 0.00 0.00 70 1013.9
20260905180128 70 22 0.9 1.7 0.00 0.00 0.00 69 1013.9
20260905175128 70 180 1.7 1.7 0.00 0.00 0.00 64 1013.8
20260905175026 70 180 1.7 2.6 0.00 0.00 0.00 64 1013.8
20260905174026 74 180 2.6 4.3 0.00 0.00 0.00 59 1013.8
20260905173927 74 350 0.9 4.3 0.00 0.00 0.00 59 1013.7
20260905173844 74 3 2.6 7.8 0.00 0.00 0.00 59 1013.7
20260905171926 71 165 0.0 0.9 0.00 0.00 0.00 62 1013.6
20260905170928 72 180 1.7 3.5 0.00 0.00 0.00 61 1013.5
20260905165943 72 360 0.0 0.0 0.00 0.00 0.00 63 1013.5
20260905165828 71 360 0.0 0.0 0.00 0.00 0.00 62 1013.6
20260905164844 71 180 0.0 1.7 0.00 0.00 0.00 64 1013.6
20260905164728 71 180 0.0 1.7 0.00 0.00 0.00 64 1013.6
20260905163826 71 261 0.0 0.9 0.00 0.00 0.00 65 1013.9
20260905163743 71 340 0.0 1.7 0.00 0.00 0.00 65 1013.8
20260905162827 71 360 0.0 0.9 0.00 0.00 0.00 63 1013.9
20260905160829 70 180 0.9 1.7 0.00 0.00 0.00 68 1013.9
20260905155828 69 180 0.9 2.6 0.00 0.00 0.00 69 1014.0
20260905154829 69 180 0.0 0.9 0.00 0.00 0.00 67 1014.1
20260905153927 69 22 0.9 1.7 0.00 0.00 0.00 68 1014.0
20260905152926 70 180 0.0 1.7 0.00 0.00 0.00 67 1014.1
20260905150926 71 357 0.0 1.7 0.00 0.00 0.00 66 1014.1
20260905145926 70 323 2.6 5.2 0.00 0.00 0.00 68 1013.9
20260905144928 69 337 2.6 4.3 0.00 0.00 0.00 69 1014.1
20260905143926 69 331 3.5 8.7 0.00 0.00 0.00 70 1014.1
20260905142927 68 341 0.9 2.6 0.00 0.00 0.00 73 1014.3
20260905141928 68 8 0.0 1.7 0.00 0.00 0.00 73 1014.2
20260905140926 69 337 1.7 2.6 0.00 0.00 0.00 72 1014.1
20260905140827 69 337 1.7 2.6 0.00 0.00 0.00 73 1014.2
20260905140728 69 345 1.7 3.5 0.00 0.00 0.00 72 1014.3
20260905135727 68 334 0.9 2.6 0.00 0.00 0.00 76 1014.2
20260905134825 66 305 0.0 2.6 0.00 0.00 0.00 77 1014.4
20260905133826 66 337 0.0 0.9 0.00 0.00 0.00 78 1014.3
20260905132825 66 8 0.0 0.9 0.00 0.00 0.00 79 1014.3
20260905130928 65 16 1.7 3.5 0.00 0.00 0.00 79 1014.0
20260905125943 65 92 1.7 3.5 0.00 0.00 0.00 81 1014.0
20260905125940 65 354 2.6 4.3 0.00 0.00 0.00 82 1014.1
20260905124030 64 354 3.5 5.2 0.00 0.00 0.00 83 1013.7
20260905120227 62 336 3.5 9.6 0.00 0.00 0.00 87 1013.7
20260905115228 61 332 2.6 5.2 0.00 0.00 0.00 89 1013.8
20260905115127 61 344 3.5 5.2 0.00 0.00 0.00 89 1013.8
20260905114130 60 360 0.9 1.7 0.00 0.00 0.00 90 1013.8
20260905113029 60 337 1.7 4.3 0.00 0.00 0.00 90 1013.8
20260905112042 60 336 0.9 1.7 0.00 0.00 0.00 88 1013.8
20260905110126 58 337 0.0 1.7 0.00 0.00 0.00 89 1013.7
20260905105126 58 337 0.0 1.7 0.00 0.00 0.00 89 1013.5
20260905105026 58 1 0.0 1.7 0.00 0.00 0.00 88 1013.5
20260905104027 57 292 0.0 0.0 0.00 0.00 0.00 89 1013.5
20260905103925 57 292 0.9 2.6 0.00 0.00 0.00 89 1013.5
20260905103830 57 292 0.9 1.7 0.00 0.00 0.00 89 1013.6
20260905102927 58 202 0.0 0.0 0.00 0.00 0.00 89 1013.7
20260905101025 58 202 0.0 0.9 0.00 0.00 0.00 88 1013.6
20260905100930 58 202 0.0 0.0 0.00 0.00 0.00 88 1013.6
20260905094927 58 270 0.0 0.0 0.00 0.00 0.00 88 1013.4
20260905093927 57 247 0.0 0.9 0.00 0.00 0.00 88 1013.3
20260905093026 57 180 0.0 0.0 0.00 0.00 0.00 87 1013.3
20260905092028 57 180 0.0 0.0 0.00 0.00 0.00 87 1013.2
20260905091026 57 315 0.0 0.0 0.00 0.00 0.00 88 1013.2
20260905090042 57 315 0.0 0.0 0.00 0.00 0.00 88 1013.2
20260905085125 56 315 0.0 0.0 0.00 0.00 0.00 87 1013.0
20260905084126 56 315 0.0 0.0 0.00 0.00 0.00 89 1013.2